Location: Unspecified
(48.7971°N, 123.6320°W)
Time: 14:15:34
(UTC-07:00)

Cosmos 2058 - Visible Passes

Search period start: 20 June 2019 00:00
Search period end: 30 June 2019 00:00
Orbit: 563 x 584 km, 82.5° (Epoch: 20 June)

Date Brightness Start Highest point End Pass type
(mag) Time Alt. Az. Time Alt. Az. Time Alt. Az.
20 Jun 3.4 00:59:06 34° SE 01:00:25 47° E 01:04:25 10° NNE visible
20 Jun 4.9 02:35:18 12° WSW 02:37:37 18° WNW 02:40:33 10° NNW visible
21 Jun 3.0 01:02:02 38° SSE 01:03:24 62° E 01:07:30 10° NNE visible
21 Jun 5.2 02:38:23 10° W 02:40:46 15° WNW 02:43:09 10° NNW visible
22 Jun 2.8 01:04:58 40° S 01:06:23 81° E 01:10:33 10° NNE visible
22 Jun 5.4 02:42:21 10° W 02:43:55 12° WNW 02:45:31 10° NW visible
22 Jun 5.2 23:32:06 10° E 23:33:10 11° E 23:34:14 10° ENE visible
23 Jun 2.9 01:07:52 38° SSW 01:09:24 79° W 01:13:35 10° N visible
23 Jun 5.0 23:34:34 12° ESE 23:36:02 14° E 23:38:13 10° NE visible
24 Jun 3.2 01:10:46 33° SW 01:12:26 60° WNW 01:16:34 10° N visible
24 Jun 4.7 23:37:27 15° ESE 23:38:55 18° E 23:41:44 10° NE visible
25 Jun 3.6 01:13:39 27° SW 01:15:29 46° WNW 01:19:31 10° N visible
25 Jun 4.4 23:40:19 18° ESE 23:41:50 22° E 23:45:06 10° NE visible
26 Jun 4.0 01:16:31 22° SW 01:18:33 36° WNW 01:22:25 10° N visible
26 Jun 4.1 23:43:11 22° SE 23:44:45 28° E 23:48:21 10° NNE visible
27 Jun 4.4 01:19:22 18° WSW 01:21:38 29° WNW 01:25:17 10° N visible
27 Jun 3.7 23:46:01 25° SE 23:47:42 36° E 23:51:32 10° NNE visible
28 Jun 4.8 01:22:12 14° WSW 01:24:44 23° WNW 01:28:05 10° NNW visible
28 Jun 3.3 23:48:50 28° SSE 23:50:39 47° E 23:54:41 10° NNE visible
29 Jun 5.1 01:25:02 10° WSW 01:27:51 19° WNW 01:30:50 10° NNW visible
29 Jun 3.0 23:51:39 29° SSE 23:53:37 62° E 23:57:46 10° NNE visible
